Gesamt
Billabong Stn Airport YBST Wetter
There is no TAF data available at YBST or any nearby airports.
There is no METAR data available at YBST. Showing METAR data for YWWL (23 mi SW).
Aktueller METAR-Verlauf WWY (keine Daten für YBST)
| Date | Time (AEST) | Flight Rules | Wind Dir. | Speed | Type | Height AGL (ft) | Visibility | Temp (°C) | Temp (°F) | Dew Point (°C) | Dew Point (°F) | Rel. Humid. | Pressure | Density Altitude | Remarks |
|---|---|---|---|---|---|---|---|---|---|---|---|---|---|---|---|
| 08-Mai | 09:00 | n/a | 260° | 11 kt | Missing | 11° | 51° | 7° | 44° | 76% | 1025 mb | 31 ft | |||
| 08-Mai | 08:00 | n/a | 260° | 8 kt | Missing | 9° | 48° | 5° | 41° | 76% | 1024 mb | -180 ft | |||
| 08-Mai | 07:00 | n/a | 260° | 7 kt | Missing | 8° | 46° | 4° | 39° | 76% | 1024 mb | -300 ft | |||
| 08-Mai | 06:00 | n/a | 260° | 12 kt | Missing | 7° | 44° | 4° | 39° | 81% | 1023 mb | -390 ft | |||
| 08-Mai | 05:00 | n/a | 270° | 11 kt | Missing | 7° | 44° | 3° | 37° | 76% | 1023 mb | -390 ft | |||
| 08-Mai | 04:00 | n/a | 260° | 10 kt | Missing | 8° | 46° | 3° | 37° | 71% | 1023 mb | -270 ft | |||
| 08-Mai | 03:00 | n/a | 260° | 11 kt | Missing | 8° | 46° | 3° | 37° | 71% | 1023 mb | -270 ft | |||
| 08-Mai | 02:00 | n/a | 270° | 10 kt | Missing | 8° | 46° | 2° | 35° | 66% | 1024 mb | -300 ft | |||
| 08-Mai | 01:00 | n/a | 280° | 7 kt | Missing | 7° | 44° | 2° | 35° | 70% | 1024 mb | -420 ft | |||
| 08-Mai | 00:00 | n/a | 280° | 7 kt | Missing | 6° | 42° | 1° | 33° | 70% | 1024 mb | -540 ft | |||
| 07-Mai | 23:00 | n/a | 260° | 7 kt | Missing | 7° | 44° | 1° | 33° | 66% | 1024 mb | -420 ft | |||
| 07-Mai | 22:00 | n/a | 260° | 8 kt | Missing | 7° | 44° | 1° | 33° | 66% | 1025 mb | -449 ft | |||
| 07-Mai | 21:00 | n/a | 260° | 7 kt | Missing | 7° | 44° | 1° | 33° | 66% | 1024 mb | -420 ft | |||
| 07-Mai | 20:00 | n/a | 250° | 7 kt | Missing | 7° | 44° | 1° | 33° | 66% | 1024 mb | -420 ft | |||
| 07-Mai | 19:00 | n/a | 270° | 6 kt | Missing | 7° | 44° | 0° | 32° | 61% | 1024 mb | -420 ft | |||
| 07-Mai | 18:00 | n/a | 220° | 8 kt | Missing | 9° | 48° | -1° | 30° | 49% | 1023 mb | -150 ft | |||
| 07-Mai | 17:00 | n/a | 220° | 16 kt | Missing | 11° | 51° | -1° | 30° | 43% | 1023 mb | 90 ft | |||
| 07-Mai | 16:00 | n/a | 230° | 17 kt | Missing | 12° | 53° | -2° | 28° | 38% | 1022 mb | 239 ft | |||
| 07-Mai | 15:00 | n/a | 220° | 18 kt | Missing | 12° | 53° | -2° | 28° | 38% | 1022 mb | 239 ft | |||
| 07-Mai | 14:00 | n/a | 210° | 17 kt | Missing | 13° | 55° | -1° | 30° | 38% | 1022 mb | 359 ft | |||
| 07-Mai | 13:00 | n/a | 230° | 18 kt | Missing | 13° | 55° | 1° | 33° | 44% | 1022 mb | 359 ft | |||
| 07-Mai | 12:00 | n/a | 230° | 19 kt | Missing | 11° | 51° | 0° | 32° | 47% | 1022 mb | 119 ft | |||
| 07-Mai | 11:00 | n/a | 230° | 16 kt | Missing | 11° | 51° | 1° | 33° | 50% | 1022 mb | 119 ft | |||
| 07-Mai | 10:00 | n/a | 240° | 18 kt | Missing | 10° | 50° | 1° | 33° | 53% | 1022 mb | -1 ft |
Anmelden
| Ihr Browser wird nicht unterstützt. aktualisieren Sie Ihren Browser |
